NN5DX-13 Weather Reports


Display with metric or nautical units.
time (UTC)temp
F
wind
direction
speed
MPH
gust
MPH
rain 1hr
in
rain 24hr
in
rain mn
in
humidity
%
barometer
mb
20260506071016 70 0.0 0.0 0.00 0.00 0.00 32 1010.9
20260506070516 70 0.0 0.0 0.00 0.00 0.00 33 1011.0
20260506062515 70 0.0 0.0 0.00 0.00 0.00 34 1010.5
20260506062016 70 0.0 0.0 0.00 0.00 0.00 34 1010.5
20260506061516 70 0.0 0.0 0.00 0.00 0.00 34 1010.5
20260506061015 71 0.0 0.0 0.00 0.00 0.00 34 1010.7
20260506060516 71 0.0 0.0 0.00 0.00 0.00 33 1011.0
20260506051016 71 0.0 0.0 0.00 0.00 0.00 35 1010.7
20260506050518 71 0.0 0.0 0.00 0.00 0.00 35 1010.7
20260506045017 70 0.0 0.0 0.00 0.00 0.00 37 1010.3
20260506044517 70 0.0 0.0 0.00 0.00 0.00 38 1010.2
20260506044017 70 0.0 0.0 0.00 0.00 0.00 39 1010.4
20260506043517 69 0.0 0.0 0.00 0.00 0.00 39 1010.1
20260506043017 69 0.0 0.0 0.00 0.00 0.00 40 1010.2
20260506042516 69 0.0 0.0 0.00 0.00 0.00 40 1010.1
20260506042017 69 0.0 0.0 0.00 0.00 0.00 41 1010.0
20260506041517 69 0.0 0.0 0.00 0.00 0.00 41 1010.0
20260506041017 69 0.0 0.0 0.00 0.00 0.00 42 1009.9
20260506040516 69 0.0 0.0 0.00 0.00 0.00 42 1009.6
20260506040017 69 0.0 0.0 0.00 0.00 0.00 42 1009.9
20260506035517 69 0.0 0.0 0.00 0.00 0.00 41 1010.0
20260506035016 69 0.0 0.0 0.00 0.00 0.00 40 1009.7
20260506034517 70 0.0 0.0 0.00 0.00 0.00 39 1009.4
20260506034017 70 0.0 0.0 0.00 0.00 0.00 39 1009.1
20260506033517 70 0.0 0.0 0.00 0.00 0.00 39 1009.2
20260506033017 70 0.0 0.0 0.00 0.00 0.00 39 1009.4
20260506032516 70 0.0 0.0 0.00 0.00 0.00 38 1009.6
20260506032017 70 0.0 0.0 0.00 0.00 0.00 39 1009.5
20260506031517 71 0.0 0.0 0.00 0.00 0.00 38 1009.5
20260506031016 71 0.0 0.0 0.00 0.00 0.00 38 1009.5
20260506030516 72 0.0 0.0 0.00 0.00 0.00 37 1009.1
20260506030017 72 0.0 0.0 0.00 0.00 0.00 36 1008.8
20260506025517 73 0.0 0.0 0.00 0.00 0.00 34 1008.6
20260506025016 73 0.0 0.0 0.00 0.00 0.00 33 1008.7
20260506024517 74 0.0 0.0 0.00 0.00 0.00 33 1008.7
20260506024017 74 0.0 0.0 0.00 0.00 0.00 31 1008.7
20260506023517 75 0.0 0.0 0.00 0.00 0.00 31 1008.2
20260506023017 75 0.0 0.0 0.00 0.00 0.00 30 1008.3
20260506022516 75 0.0 0.0 0.00 0.00 0.00 29 1008.3
20260506022016 75 0.0 0.0 0.00 0.00 0.00 29 1008.1
20260506021517 75 0.0 0.0 0.00 0.00 0.00 28 1008.3
20260506021017 76 0.0 0.0 0.00 0.00 0.00 28 1008.3
20260506020517 76 0.0 0.0 0.00 0.00 0.00 27 1008.4
20260506020017 76 0.0 0.0 0.00 0.00 0.00 27 1008.2
20260506015516 76 0.0 0.0 0.00 0.00 0.00 26 1008.1
20260506015018 77 0.0 0.0 0.00 0.00 0.00 26 1008.1
20260506014517 77 0.0 0.0 0.00 0.00 0.00 26 1007.9
20260506014017 77 0.0 0.0 0.00 0.00 0.00 25 1007.9
20260506013516 78 0.0 0.0 0.00 0.00 0.00 25 1008.2
20260506013017 78 0.0 0.0 0.00 0.00 0.00 25 1008.1
20260506012516 78 0.0 0.0 0.00 0.00 0.00 24 1008.0
20260506012016 78 0.0 0.0 0.00 0.00 0.00 24 1007.9
20260506011520 79 0.0 0.0 0.00 0.00 0.00 24 1007.8
20260506011017 79 0.0 0.0 0.00 0.00 0.00 23 1008.1
20260506010516 79 0.0 0.0 0.00 0.00 0.00 23 1008.1
20260506010017 79 0.0 0.0 0.00 0.00 0.00 23 1008.0
20260506005517 80 0.0 0.0 0.00 0.00 0.00 22 1008.0
20260506005016 80 0.0 0.0 0.00 0.00 0.00 22 1007.9
20260506004516 80 0.0 0.0 0.00 0.00 0.00 22 1007.8
20260506004016 80 0.0 0.0 0.00 0.00 0.00 21 1008.0
20260506003517 80 0.0 4.0 0.00 0.00 0.00 21 1007.8
20260506003016 81 0.0 4.0 0.00 0.00 0.00 21 1007.8
20260506002517 81 0.0 6.0 0.00 0.00 0.00 21 1007.7
20260506002016 81 0 1.0 6.0 0.00 0.00 0.00 21 1007.9
20260506001517 81 23 1.0 4.0 0.00 0.00 0.00 20 1007.7
20260506001017 81 0.0 4.0 0.00 0.00 0.00 20 1007.7
20260506000517 81 0.0 0.0 0.00 0.00 0.00 20 1007.4
20260506000017 82 338 1.0 10.0 0.00 0.00 0.00 19 1007.5
20260505235517 82 0.0 0.0 0.00 0.00 0.00 20 1007.5
20260505235016 82 0.0 1.0 0.00 0.00 0.00 20 1007.6
20260505234516 82 0.0 5.0 0.00 0.00 0.00 19 1007.5
20260505234017 82 315 1.0 8.0 0.00 0.00 0.00 19 1007.6
20260505233516 82 0 1.0 6.0 0.00 0.00 0.00 19 1007.6
20260505233017 82 0.0 5.0 0.00 0.00 0.00 19 1007.6
20260505232517 82 315 1.0 7.0 0.00 0.00 0.00 19 1007.7
20260505232017 82 338 1.0 11.0 0.00 0.00 0.00 19 1007.6
20260505231517 83 338 1.0 11.0 0.00 0.00 0.00 19 1007.7
20260505231016 83 338 1.0 10.0 0.00 0.00 0.00 18 1007.9
20260505230517 83 0.0 1.0 0.00 0.00 0.00 19 1008.0
20260505230017 83 315 1.0 7.0 0.00 0.00 0.00 19 1007.9
20260505225517 83 0.0 6.0 0.00 0.00 0.00 19 1008.0
20260505225017 83 0.0 5.0 0.00 0.00 0.00 19 1007.9
20260505224517 84 0.0 3.0 0.00 0.00 0.00 19 1007.8
20260505224016 84 0.0 2.0 0.00 0.00 0.00 19 1007.9
20260505223519 84 0.0 4.0 0.00 0.00 0.00 19 1007.8
20260505223016 84 0.0 2.0 0.00 0.00 0.00 20 1008.0
20260505222516 84 0 1.0 5.0 0.00 0.00 0.00 20 1008.1
20260505222017 85 0 1.0 8.0 0.00 0.00 0.00 20 1008.4
20260505221517 85 0.0 6.0 0.00 0.00 0.00 21 1008.5
20260505221016 85 0.0 3.0 0.00 0.00 0.00 22 1008.5
20260505220516 85 0.0 5.0 0.00 0.00 0.00 22 1008.6
20260505220020 85 0.0 3.0 0.00 0.00 0.00 22 1008.6
20260505215516 85 0.0 2.0 0.00 0.00 0.00 22 1008.8
20260505215016 85 0.0 0.0 0.00 0.00 0.00 22 1008.7
20260505214517 85 0.0 2.0 0.00 0.00 0.00 21 1008.8
20260505214016 85 0.0 2.0 0.00 0.00 0.00 21 1008.9
20260505213517 85 0.0 0.0 0.00 0.00 0.00 22 1008.7
20260505213017 86 315 1.0 9.0 0.00 0.00 0.00 21 1008.8
20260505212517 86 338 1.0 6.0 0.00 0.00 0.00 22 1009.0
20260505212017 86 0.0 4.0 0.00 0.00 0.00 21 1009.0
20260505211517 87 0.0 4.0 0.00 0.00 0.00 21 1009.2
20260505211017 87 0 1.0 11.0 0.00 0.00 0.00 20 1009.2
20260505210516 87 0.0 4.0 0.00 0.00 0.00 20 1009.0
20260505210017 88 0.0 3.0 0.00 0.00 0.00 20 1009.0
20260505205517 88 0.0 6.0 0.00 0.00 0.00 20 1009.2
20260505205017 88 293 1.0 7.0 0.00 0.00 0.00 20 1009.3
20260505204516 87 0.0 0.0 0.00 0.00 0.00 21 1009.2
20260505204017 88 0.0 2.0 0.00 0.00 0.00 20 1009.4
20260505203517 87 0.0 3.0 0.00 0.00 0.00 21 1009.4
20260505203017 87 23 1.0 6.0 0.00 0.00 0.00 21 1009.4
20260505202516 87 315 1.0 7.0 0.00 0.00 0.00 21 1009.6
20260505202017 87 0.0 1.0 0.00 0.00 0.00 21 1009.6
20260505201516 87 0.0 0.0 0.00 0.00 0.00 21 1009.6
20260505201016 86 0.0 2.0 0.00 0.00 0.00 22 1009.5
20260505200517 87 315 1.0 6.0 0.00 0.00 0.00 21 1009.8
20260505200017 87 0.0 5.0 0.00 0.00 0.00 21 1009.7
20260505195516 87 0.0 3.0 0.00 0.00 0.00 21 1009.8
20260505195017 87 0.0 0.0 0.00 0.00 0.00 21 1009.9
20260505194517 87 0.0 4.0 0.00 0.00 0.00 20 1009.8
20260505194016 87 0.0 0.0 0.00 0.00 0.00 22 1009.7
20260505193516 86 0.0 1.0 0.00 0.00 0.00 21 1009.9
20260505193017 86 0.0 0.0 0.00 0.00 0.00 21 1009.9
20260505192516 86 0.0 0.0 0.00 0.00 0.00 21 1010.1
20260505192016 86 0.0 1.0 0.00 0.00 0.00 22 1010.2
20260505191516 86 0.0 0.0 0.00 0.00 0.00 23 1010.1
20260505191016 85 0.0 0.0 0.00 0.00 0.00 22 1010.0
20260505190516 85 0.0 1.0 0.00 0.00 0.00 22 1010.5
20260505190016 85 315 1.0 6.0 0.00 0.00 0.00 22 1010.3
20260505185516 84 315 1.0 10.0 0.00 0.00 0.00 22 1010.3
20260505185016 85 0.0 1.0 0.00 0.00 0.00 22 1010.5
20260505184516 85 0.0 4.0 0.00 0.00 0.00 23 1010.5
20260505184016 84 0.0 0.0 0.00 0.00 0.00 22 1010.4
20260505183516 84 0.0 6.0 0.00 0.00 0.00 22 1010.7
20260505183017 83 0.0 1.0 0.00 0.00 0.00 22 1010.8
20260505182517 84 315 1.0 6.0 0.00 0.00 0.00 22 1010.9
20260505182016 84 293 1.0 9.0 0.00 0.00 0.00 23 1010.8
20260505181516 84 293 1.0 7.0 0.00 0.00 0.00 22 1010.8
20260505181016 84 0.0 2.0 0.00 0.00 0.00 23 1010.9
20260505180516 83 0.0 2.0 0.00 0.00 0.00 23 1011.0
20260505180016 83 0.0 1.0 0.00 0.00 0.00 23 1011.1
20260505175516 83 315 1.0 6.0 0.00 0.00 0.00 23 1011.1
20260505175016 83 338 1.0 9.0 0.00 0.00 0.00 22 1011.2
20260505174516 83 0.0 6.0 0.00 0.00 0.00 23 1011.1
20260505174016 83 0.0 2.0 0.00 0.00 0.00 23 1011.3
20260505173518 83 315 2.0 15.0 0.00 0.00 0.00 22 1011.5
20260505173016 83 0.0 2.0 0.00 0.00 0.00 23 1011.3
20260505172517 83 315 1.0 8.0 0.00 0.00 0.00 23 1011.5
20260505172017 83 0.0 1.0 0.00 0.00 0.00 23 1011.5
20260505171517 82 0.0 5.0 0.00 0.00 0.00 23 1011.3
20260505171017 83 315 3.0 14.0 0.00 0.00 0.00 23 1011.5
20260505170516 83 0.0 5.0 0.00 0.00 0.00 24 1011.6
20260505170016 83 315 1.0 5.0 0.00 0.00 0.00 23 1011.5
20260505165516 82 0.0 1.0 0.00 0.00 0.00 23 1011.3
20260505165016 82 315 2.0 15.0 0.00 0.00 0.00 24 1011.4
20260505164516 82 0.0 2.0 0.00 0.00 0.00 23 1011.3
20260505164016 82 0.0 7.0 0.00 0.00 0.00 24 1011.1
20260505163517 81 338 1.0 7.0 0.00 0.00 0.00 25 1011.3
20260505163016 81 293 1.0 10.0 0.00 0.00 0.00 24 1011.4
20260505162516 81 315 1.0 7.0 0.00 0.00 0.00 24 1011.4
20260505162017 81 0.0 10.0 0.00 0.00 0.00 24 1011.3
20260505161518 81 315 1.0 13.0 0.00 0.00 0.00 23 1011.4
20260505161016 80 0.0 3.0 0.00 0.00 0.00 25 1011.2
20260505160516 80 0.0 9.0 0.00 0.00 0.00 24 1011.4
20260505153016 79 0.0 4.0 0.00 0.00 0.00 25 1011.1
20260505152516 79 315 1.0 9.0 0.00 0.00 0.00 25 1011.2
20260505152016 78 0.0 4.0 0.00 0.00 0.00 26 1011.0
20260505151516 78 0.0 5.0 0.00 0.00 0.00 27 1011.0
20260505151016 77 0.0 2.0 0.00 0.00 0.00 29 1011.0
20260505150517 76 0.0 2.0 0.00 0.00 0.00 31 1011.2
20260505140517 69 0.0 0.0 0.00 0.00 0.00 41 1010.4
20260505125016 70 0.0 0.0 0.00 0.00 0.00 34 1009.8
20260505124516 70 0.0 0.0 0.00 0.00 0.00 34 1009.8
20260505124016 69 0.0 0.0 0.00 0.00 0.00 34 1009.7
20260505123516 69 0.0 0.0 0.00 0.00 0.00 35 1009.8
20260505123016 68 0.0 0.0 0.00 0.00 0.00 37 1009.6
20260505122516 68 0.0 0.0 0.00 0.00 0.00 37 1009.6
20260505122016 68 0.0 0.0 0.00 0.00 0.00 38 1009.6
20260505121516 68 0.0 0.0 0.00 0.00 0.00 38 1009.5
20260505121016 67 0.0 0.0 0.00 0.00 0.00 38 1009.4
20260505120516 66 0.0 0.0 0.00 0.00 0.00 40 1009.3
20260505120016 65 0.0 0.0 0.00 0.00 0.00 42 1009.3
20260505115516 65 0.0 0.0 0.00 0.00 0.00 43 1009.3
20260505115016 65 0.0 0.0 0.00 0.00 0.00 44 1009.0
20260505114516 65 0.0 0.0 0.00 0.00 0.00 45 1009.1
20260505114016 65 0.0 0.0 0.00 0.00 0.00 45 1009.2
20260505113516 65 0.0 0.0 0.00 0.00 0.00 45 1008.8
20260505113016 64 0.0 0.0 0.00 0.00 0.00 46 1008.8
20260505112516 64 0.0 0.0 0.00 0.00 0.00 47 1008.9
20260505112016 64 0.0 0.0 0.00 0.00 0.00 47 1008.8
20260505111516 65 0.0 0.0 0.00 0.00 0.00 46 1008.8
20260505111016 65 0.0 0.0 0.00 0.00 0.00 45 1008.7
20260505110516 65 0.0 0.0 0.00 0.00 0.00 44 1008.9
20260505102016 67 0.0 0.0 0.00 0.00 0.00 43 1009.1
20260505101516 67 0.0 0.0 0.00 0.00 0.00 43 1009.1
20260505101016 67 0.0 2.0 0.00 0.00 0.00 43 1008.9
20260505100516 67 0.0 0.0 0.00 0.00 0.00 44 1008.9
20260505100016 67 0.0 0.0 0.00 0.00 0.00 45 1008.9
20260505095516 68 0.0 2.0 0.00 0.00 0.00 45 1009.0
20260505095016 68 0.0 2.0 0.00 0.00 0.00 44 1009.0
20260505094516 68 293 1.0 4.0 0.00 0.00 0.00 45 1008.9
20260505094016 68 0.0 0.0 0.00 0.00 0.00 46 1008.7
20260505093516 67 0.0 0.0 0.00 0.00 0.00 47 1008.6
20260505093016 67 0.0 0.0 0.00 0.00 0.00 47 1008.5
20260505092516 68 0.0 0.0 0.00 0.00 0.00 48 1008.7
20260505092016 68 0.0 2.0 0.00 0.00 0.00 48 1008.7
20260505091516 68 0.0 0.0 0.00 0.00 0.00 48 1008.7
20260505091016 68 0.0 3.0 0.00 0.00 0.00 49 1008.7
20260505090516 67 293 1.0 3.0 0.00 0.00 0.00 50 1008.5
20260505090016 66 0.0 0.0 0.00 0.00 0.00 55 1008.5
20260505085516 64 0.0 0.0 0.00 0.00 0.00 67 1008.5
20260505085016 63 0.0 0.0 0.00 0.00 0.00 75 1008.4
20260505084516 63 0.0 0.0 0.00 0.00 0.00 76 1008.4
20260505084016 64 0.0 0.0 0.00 0.00 0.00 76 1008.6
20260505083516 64 0.0 0.0 0.00 0.00 0.00 75 1008.4
20260505083016 65 0.0 0.0 0.00 0.00 0.00 74 1008.6
20260505082516 65 0.0 0.0 0.00 0.00 0.00 74 1008.5
20260505082016 65 0.0 0.0 0.00 0.00 0.00 74 1008.6
20260505081516 65 0.0 0.0 0.00 0.00 0.00 74 1008.5
20260505081016 65 0.0 0.0 0.00 0.00 0.00 75 1008.6
20260505080516 65 0.0 0.0 0.00 0.00 0.00 73 1008.4
20260505080016 66 0.0 0.0 0.00 0.00 0.00 72 1008.6
20260505075516 66 0.0 0.0 0.00 0.00 0.00 72 1008.7
20260505075016 67 0.0 0.0 0.00 0.00 0.00 71 1008.7
20260505074517 67 0.0 0.0 0.00 0.00 0.00 71 1008.8
20260505074016 67 0.0 0.0 0.00 0.00 0.00 71 1008.9
20260505073516 67 0.0 0.0 0.00 0.00 0.00 71 1009.0
20260505073016 67 0.0 0.0 0.00 0.00 0.00 71 1009.0
20260505072516 67 0.0 0.0 0.00 0.00 0.00 70 1009.1
20260505072016 67 0.0 0.0 0.00 0.00 0.00 70 1009.1
20260505071516 68 0.0 0.0 0.00 0.00 0.00 70 1009.3